Weather History for KSKA - July, 2013

Change the Weather History Date:

Saturday, July 6, 2013

  Actual Average Record
Temperature  
Mean Temperature 67 °F -  
Max Temperature 81 °F 78 °F 94 °F (2007)
Min Temperature 54 °F 52 °F 44 °F (1996)
Cooling Degree Days 2    
Growing Degree Days 17 (Base 50)    
Moisture  
Dew Point 47 °F    
Average Humidity 50    
Maximum Humidity 72    
Minimum Humidity 27    
Precipitation  
Precipitation 0.00 in - - ()
Sea Level Pressure  
Sea Level Pressure 29.87 in    
Wind  
Wind Speed 3 mph (NNE)    
Max Wind Speed 8 mph    
Max Gust Speed -    
Visibility 10 miles    
Events      
Averages and records for this station are not official NWS values.
T = Trace of Precipitation, MM = Missing Value Source: NWS Daily Summary

Daily Weather History Graph

Daily Weather History Graph

Search for Another Location

Airport or City:

Trip Planner

Search our weather history database for the weather conditions in past years. The results will help you decide how hot, cold, wet, or windy it might be!

Date:

Astronomy

Jul. 06, 2013 Rise Set
Actual Time 5:00 AM PDT 8:49 PM PDT
Civil Twilight 4:20 AM PDT 9:29 PM PDT
Nautical Twilight 3:26 AM PDT 10:23 PM PDT
Astronomical Twilight 2:05 AM PDT 11:43 PM PDT
Moon 3:54 AM PDT (7/6) 7:30 PM PDT (7/6)
Length of Visible Light 17h 09m
Length of Day
15h 49m
Waning Crescent, 2% of the Moon is Illuminated
Jul 6
Waning Crescent
Jul 8
New
Jul 15
First Quarter
Jul 22
Full
Jul 29
Last Quarter

Hourly Weather History & Observations

Time (PDT) Temp. Dew Point Humidity Pressure Visibility Wind Dir Wind Speed Gust Speed Precip Events Conditions
12:58 AM 60.8 °F 45.1 °F 56% 29.85 in 10.0 mi SSW 2.3 mph - N/A   Clear
1:58 AM 57.6 °F 44.2 °F 61% 29.87 in 10.0 mi Calm Calm - N/A   Clear
2:58 AM 55.0 °F 45.9 °F 71% 29.88 in 10.0 mi SE 3.5 mph - N/A   Partly Cloudy
3:58 AM 57.0 °F 44.4 °F 63% 29.87 in 10.0 mi South 3.5 mph - N/A   Partly Cloudy
4:58 AM 55.2 °F 45.1 °F 69% 29.89 in 10.0 mi SSE 2.3 mph - N/A   Clear
5:58 AM 54.9 °F 46.0 °F 72% 29.90 in 10.0 mi East 3.5 mph - N/A   Clear
6:58 AM 59.4 °F 45.9 °F 61% 29.90 in 10.0 mi ENE 3.5 mph - N/A   Mostly Cloudy
7:58 AM 61.5 °F 47.5 °F 60% 29.91 in 10.0 mi Variable 1.2 mph - N/A   Clear
8:58 AM 64.8 °F 49.5 °F 58% 29.92 in 10.0 mi Variable 2.3 mph - N/A   Clear
9:58 AM 67.8 °F 50.5 °F 54% 29.91 in 10.0 mi Variable 2.3 mph - N/A   Clear
10:58 AM 71.1 °F 49.6 °F 47% 29.91 in 10.0 mi Calm Calm - N/A   Clear
11:58 AM 74.3 °F 50.4 °F 43% 29.90 in 10.0 mi Variable 1.2 mph - N/A   Clear
12:58 PM 76.6 °F 50.0 °F 39% 29.89 in 10.0 mi Variable 3.5 mph - N/A   Clear
1:58 PM 78.1 °F 50.5 °F 38% 29.88 in 10.0 mi Variable 4.6 mph - N/A   Clear
2:58 PM 79.0 °F 49.1 °F 35% 29.87 in 10.0 mi NE 4.6 mph - N/A   Scattered Clouds
3:58 PM 79.5 °F 47.7 °F 33% 29.86 in 10.0 mi Variable 3.5 mph - N/A   Clear
4:58 PM 80.8 °F 44.2 °F 27% 29.84 in 10.0 mi Variable 4.6 mph - N/A   Clear
5:58 PM 80.2 °F 47.3 °F 31% 29.83 in 10.0 mi West 8.1 mph - N/A   Mostly Cloudy
6:58 PM 79.3 °F 47.1 °F 32% 29.82 in 10.0 mi North 6.9 mph - N/A   Clear
7:58 PM 75.2 °F 50.4 °F 42% 29.82 in 10.0 mi North 6.9 mph - N/A   Clear
8:58 PM 71.4 °F 47.1 °F 42% 29.83 in 10.0 mi North 5.8 mph - N/A   Clear
9:58 PM 69.1 °F 45.7 °F 43% 29.84 in 10.0 mi NNW 5.8 mph - N/A   Clear
10:58 PM 65.1 °F 45.9 °F 50% 29.84 in 10.0 mi NNW 6.9 mph - N/A   Clear
11:58 PM 60.1 °F 49.5 °F 68% 29.85 in 10.0 mi ENE 2.3 mph - N/A   Clear